Location: Alexandria
(38.8050°N, 77.0470°W)
Time: 02:29:36
(UTC-04:00)

ISS - Pass Details

Date: 11 February 2018
Orbit: 402 x 406 km, 51.6° (Epoch: 21 June)

Event Time Altitude Azimuth Distance (km) Brightness Sun altitude
Rises 19:30:35 0° 300° (WNW) 2,317 1.0 -21.8°
Reaches altitude 10° 19:32:49 10° 289° (WNW) 1,455 0.0 -22.2°
Maximum altitude 19:35:42 29° 226° (SW) 760 -2.1 -22.8°
Enters shadow 19:36:06 29° 211° (SSW) 778 -2.2 -22.8°
